Bluarrow — CRXN — position and weather

sailwx.info

Track history (hours):
 
Tides and Currents Weather Stations Pressure Air Temp Water Temp Dewpoint Dewpoint Depression Visibility Wind Speed Wind Dir Waves Ship Positions

Bluarrow

Last reported at 2014-Oct-19 20:21 UTC. Time now 2014-Oct-20 08:21 UTC.
Position N 35°46' W 000°37'.

; draft 8.1 m.

Type: Cargo ship. MMSI: 255797000.

Date/timePositionNaut miles runAvg speedWind from/ knotsBaromVisibWave heightAir tempDewpointWater temp
2014-Oct-19 20:21N 35°46' W 000°37'0 0.1
2014-Oct-19 19:33N 35°46' W 000°37'0 0.0
2014-Oct-19 18:21N 35°46' W 000°37'0 0.0
2014-Oct-19 16:33N 35°46' W 000°37'228 8.4
2014-Oct-18 13:33N 35°55' W 005°18'1 1.4
2014-Oct-18 12:31N 35°54' W 005°18'0 0.0
2014-Oct-18 11:31N 35°54' W 005°18'0 0.0
2014-Oct-18 10:31N 35°54' W 005°18'0 0.0
2014-Oct-18 09:31N 35°54' W 005°18'0 0.0
2014-Oct-18 08:31N 35°54' W 005°18'0 0.1
2014-Oct-18 07:33N 35°54' W 005°19'2 1.7
2014-Oct-18 06:33N 35°55' W 005°19'2 2.2
2014-Oct-18 05:33N 35°57' W 005°21'6 6.3
2014-Oct-18 04:33N 35°56' W 005°29'82 9.1
2014-Oct-17 19:33N 36°06' W 007°10'23 9.1
2014-Oct-17 17:05N 36°12' W 007°37'16 9.3
2014-Oct-17 15:21N 36°17' W 007°56'95 7.4
2014-Oct-17 02:31N 37°17' W 009°28'8 8.3
2014-Oct-17 01:32N 37°24' W 009°24'10 8.3
2014-Oct-17 00:20N 37°34' W 009°20'7 8.5
2014-Oct-16 23:33N 37°40' W 009°17'9 8.7
2014-Oct-16 22:33N 37°48' W 009°15'8 8.4
2014-Oct-16 21:33N 37°56' W 009°12'9 8.8
2014-Oct-16 20:33N 38°05' W 009°08'8 8.2
2014-Oct-16 19:33N 38°13' W 009°05'8 8.4
2014-Oct-16 18:33N 38°21' W 009°02'8 7.4
2014-Oct-16 17:32N 38°27' W 008°58'3 2.3
2014-Oct-16 16:26N 38°30' W 008°56'0 0.0
2014-Oct-16 15:32N 38°30' W 008°56'0 0.0
2014-Oct-16 14:29N 38°30' W 008°56'0 0.0
2014-Oct-16 13:32N 38°30' W 008°56'0 0.0
2014-Oct-16 12:32N 38°30' W 008°56'0 0.0
2014-Oct-16 11:29N 38°30' W 008°56'0 0.0
2014-Oct-16 10:26N 38°30' W 008°56'0 0.0
2014-Oct-16 09:32N 38°30' W 008°56'0 0.0
2014-Oct-16 08:26N 38°30' W 008°56'0 0.0
2014-Oct-16 07:32N 38°30' W 008°56'0 0.0
2014-Oct-16 06:32N 38°30' W 008°56'0 0.0
2014-Oct-16 05:29N 38°30' W 008°56'0 0.0
2014-Oct-16 04:32N 38°30' W 008°56'0 0.0
2014-Oct-16 03:32N 38°30' W 008°56'0 0.0
2014-Oct-16 02:20N 38°30' W 008°56'0 0.0
2014-Oct-16 01:32N 38°30' W 008°56'0 0.0
2014-Oct-16 00:32N 38°30' W 008°56'0 0.0
2014-Oct-15 23:32N 38°30' W 008°56'0 0.0
2014-Oct-15 22:32N 38°30' W 008°56'0 0.0
2014-Oct-15 21:32N 38°30' W 008°56'0 0.0
2014-Oct-15 20:32N 38°30' W 008°56'0 0.0
2014-Oct-15 19:32N 38°30' W 008°56'0 0.0
2014-Oct-15 18:32N 38°30' W 008°56'0 0.0
2014-Oct-15 17:29N 38°30' W 008°56'0 0.0
2014-Oct-15 16:29N 38°30' W 008°56'0 0.0
2014-Oct-15 15:32N 38°30' W 008°56'0 0.0
2014-Oct-15 14:32N 38°30' W 008°56'0 0.0
2014-Oct-15 13:32N 38°30' W 008°56'0 0.0
2014-Oct-15 12:32N 38°30' W 008°56'0 0.0
2014-Oct-15 11:32N 38°30' W 008°56'0 0.0
2014-Oct-15 10:32N 38°30' W 008°56'0 0.0
2014-Oct-15 09:29N 38°30' W 008°56'0 0.0
2014-Oct-15 08:29N 38°30' W 008°56'0 0.0
2014-Oct-15 07:29N 38°30' W 008°56'0 0.0
2014-Oct-15 06:32N 38°30' W 008°56'0 0.0
2014-Oct-15 05:17N 38°30' W 008°56'0 0.0
2014-Oct-15 04:29N 38°30' W 008°56'0 0.0
2014-Oct-15 03:32N 38°30' W 008°56'0 0.0
2014-Oct-15 02:29N 38°30' W 008°56'0 0.0
2014-Oct-15 01:32N 38°30' W 008°56'0 0.0
2014-Oct-15 00:29N 38°30' W 008°56'0 0.0
2014-Oct-14 23:32N 38°30' W 008°56'0 0.0
2014-Oct-14 22:32N 38°30' W 008°56'0 0.0
2014-Oct-14 21:29N 38°30' W 008°56'0 0.0
2014-Oct-14 20:32N 38°30' W 008°56'0 0.0
2014-Oct-14 19:32N 38°30' W 008°56'2 1.8
2014-Oct-14 18:32N 38°30' W 008°54'1 0.5
2014-Oct-14 17:32N 38°31' W 008°53'0 0.0
2014-Oct-14 16:29N 38°31' W 008°53'0 0.0
2014-Oct-14 15:32N 38°31' W 008°53'0 0.0
2014-Oct-14 14:32N 38°31' W 008°53'0 0.0
2014-Oct-14 13:32N 38°31' W 008°53'0 0.1
2014-Oct-14 12:32N 38°31' W 008°53'0 0.1
2014-Oct-14 11:29N 38°31' W 008°54'0 0.0
2014-Oct-14 10:23N 38°31' W 008°54'0 0.0
2014-Oct-14 08:29N 38°31' W 008°54'0 0.1
2014-Oct-14 07:26N 38°31' W 008°53'0 0.0
2014-Oct-14 06:29N 38°31' W 008°53'0 0.0
2014-Oct-14 05:29N 38°31' W 008°53'0 0.0
2014-Oct-14 04:32N 38°31' W 008°53'0 0.0
2014-Oct-14 03:29N 38°31' W 008°53'0 0.0
2014-Oct-14 02:23N 38°31' W 008°53'0 0.0
2014-Oct-14 01:32N 38°31' W 008°53'0 0.0
2014-Oct-14 00:29N 38°31' W 008°53'0 0.0
2014-Oct-13 23:17N 38°31' W 008°53'0 0.1
2014-Oct-13 22:23N 38°31' W 008°54'0 0.0
2014-Oct-13 21:17N 38°31' W 008°54'0 0.0
2014-Oct-13 20:29N 38°31' W 008°54'0 0.0
2014-Oct-13 19:32N 38°31' W 008°54'0 0.1
2014-Oct-13 18:32N 38°31' W 008°53'0 0.0
2014-Oct-13 17:32N 38°31' W 008°53'0 0.0
2014-Oct-13 16:23N 38°31' W 008°53'0 0.1
2014-Oct-13 15:26N 38°31' W 008°53'0 0.0
2014-Oct-13 14:32N 38°31' W 008°53'0 0.0
2014-Oct-13 13:32N 38°31' W 008°53'0 0.0
2014-Oct-13 12:29N 38°31' W 008°54'1 1.2
2014-Oct-13 11:33N 38°30' W 008°55'8 8.4
2014-Oct-13 10:34N 38°23' W 009°01'1110.5
2014-Oct-13 09:33N 38°13' W 009°03'10 9.9
2014-Oct-13 08:33N 38°03' W 009°05'9 9.0
2014-Oct-13 07:33N 37°54' W 009°07'9 8.7
2014-Oct-13 06:33N 37°46' W 009°09'8 8.0
2014-Oct-13 05:33N 37°38' W 009°11'7 7.3
2014-Oct-13 04:33N 37°31' W 009°13'58 4.1
2014-Oct-12 14:20N 36°38' W 008°43'167 7.7
2014-Oct-11 16:32N 36°02' W 005°21'226 9.4
2014-Oct-10 16:29N 36°34' W 000°43'19 9.8
2014-Oct-10 14:33N 36°36' W 000°19'2110.1
2014-Oct-10 12:29N 36°38' E 000°07'11 9.8
2014-Oct-10 11:22N 36°40' E 000°20'45 8.9
2014-Oct-10 06:19N 36°43' E 001°16'7 9.2
2014-Oct-10 05:32N 36°44' E 001°25'9 9.3
2014-Oct-10 04:33N 36°45' E 001°36'10 9.1
2014-Oct-10 03:29N 36°47' E 001°48'11 8.9
2014-Oct-10 02:12N 36°48' E 002°02'8 9.2
2014-Oct-10 01:23N 36°49' E 002°12'19 9.4
2014-Oct-09 23:22N 36°50' E 002°35'8 9.7
2014-Oct-09 22:33N 36°50' E 002°45'10 9.7
2014-Oct-09 21:29N 36°51' E 002°58'8 8.2
2014-Oct-09 20:34N 36°48' E 003°07'  
Track history (hours):
 
Tides and Currents Weather Stations Pressure Air Temp Water Temp Dewpoint Dewpoint Depression Visibility Wind Speed Wind Dir Waves Ship Positions

Bluarrow

Last reported at 2014-Oct-19 20:21 UTC. Time now 2014-Oct-20 08:21 UTC.
Position N 35°46' W 000°37'.

; draft 8.1 m.

Type: Cargo ship. MMSI: 255797000.

Date/timePositionNaut miles runAvg speedWind from/ knotsBaromVisibWave heightAir tempDewpointWater temp
2014-Oct-19 20:21N 35°46' W 000°37'0 0.1
2014-Oct-19 19:33N 35°46' W 000°37'0 0.0
2014-Oct-19 18:21N 35°46' W 000°37'0 0.0
2014-Oct-19 16:33N 35°46' W 000°37'228 8.4
2014-Oct-18 13:33N 35°55' W 005°18'1 1.4
2014-Oct-18 12:31N 35°54' W 005°18'0 0.0
2014-Oct-18 11:31N 35°54' W 005°18'0 0.0
2014-Oct-18 10:31N 35°54' W 005°18'0 0.0
2014-Oct-18 09:31N 35°54' W 005°18'0 0.0
2014-Oct-18 08:31N 35°54' W 005°18'0 0.1
2014-Oct-18 07:33N 35°54' W 005°19'2 1.7
2014-Oct-18 06:33N 35°55' W 005°19'2 2.2
2014-Oct-18 05:33N 35°57' W 005°21'6 6.3
2014-Oct-18 04:33N 35°56' W 005°29'82 9.1
2014-Oct-17 19:33N 36°06' W 007°10'23 9.1
2014-Oct-17 17:05N 36°12' W 007°37'16 9.3
2014-Oct-17 15:21N 36°17' W 007°56'95 7.4
2014-Oct-17 02:31N 37°17' W 009°28'8 8.3
2014-Oct-17 01:32N 37°24' W 009°24'10 8.3
2014-Oct-17 00:20N 37°34' W 009°20'7 8.5
2014-Oct-16 23:33N 37°40' W 009°17'9 8.7
2014-Oct-16 22:33N 37°48' W 009°15'8 8.4
2014-Oct-16 21:33N 37°56' W 009°12'9 8.8
2014-Oct-16 20:33N 38°05' W 009°08'8 8.2
2014-Oct-16 19:33N 38°13' W 009°05'8 8.4
2014-Oct-16 18:33N 38°21' W 009°02'8 7.4
2014-Oct-16 17:32N 38°27' W 008°58'3 2.3
2014-Oct-16 16:26N 38°30' W 008°56'0 0.0
2014-Oct-16 15:32N 38°30' W 008°56'0 0.0
2014-Oct-16 14:29N 38°30' W 008°56'0 0.0
2014-Oct-16 13:32N 38°30' W 008°56'0 0.0
2014-Oct-16 12:32N 38°30' W 008°56'0 0.0
2014-Oct-16 11:29N 38°30' W 008°56'0 0.0
2014-Oct-16 10:26N 38°30' W 008°56'0 0.0
2014-Oct-16 09:32N 38°30' W 008°56'0 0.0
2014-Oct-16 08:26N 38°30' W 008°56'0 0.0
2014-Oct-16 07:32N 38°30' W 008°56'0 0.0
2014-Oct-16 06:32N 38°30' W 008°56'0 0.0
2014-Oct-16 05:29N 38°30' W 008°56'0 0.0
2014-Oct-16 04:32N 38°30' W 008°56'0 0.0
2014-Oct-16 03:32N 38°30' W 008°56'0 0.0
2014-Oct-16 02:20N 38°30' W 008°56'0 0.0
2014-Oct-16 01:32N 38°30' W 008°56'0 0.0
2014-Oct-16 00:32N 38°30' W 008°56'0 0.0
2014-Oct-15 23:32N 38°30' W 008°56'0 0.0
2014-Oct-15 22:32N 38°30' W 008°56'0 0.0
2014-Oct-15 21:32N 38°30' W 008°56'0 0.0
2014-Oct-15 20:32N 38°30' W 008°56'0 0.0
2014-Oct-15 19:32N 38°30' W 008°56'0 0.0
2014-Oct-15 18:32N 38°30' W 008°56'0 0.0
2014-Oct-15 17:29N 38°30' W 008°56'0 0.0
2014-Oct-15 16:29N 38°30' W 008°56'0 0.0
2014-Oct-15 15:32N 38°30' W 008°56'0 0.0
2014-Oct-15 14:32N 38°30' W 008°56'0 0.0
2014-Oct-15 13:32N 38°30' W 008°56'0 0.0
2014-Oct-15 12:32N 38°30' W 008°56'0 0.0
2014-Oct-15 11:32N 38°30' W 008°56'0 0.0
2014-Oct-15 10:32N 38°30' W 008°56'0 0.0
2014-Oct-15 09:29N 38°30' W 008°56'0 0.0
2014-Oct-15 08:29N 38°30' W 008°56'0 0.0
2014-Oct-15 07:29N 38°30' W 008°56'0 0.0
2014-Oct-15 06:32N 38°30' W 008°56'0 0.0
2014-Oct-15 05:17N 38°30' W 008°56'0 0.0
2014-Oct-15 04:29N 38°30' W 008°56'0 0.0
2014-Oct-15 03:32N 38°30' W 008°56'0 0.0
2014-Oct-15 02:29N 38°30' W 008°56'0 0.0
2014-Oct-15 01:32N 38°30' W 008°56'0 0.0
2014-Oct-15 00:29N 38°30' W 008°56'0 0.0
2014-Oct-14 23:32N 38°30' W 008°56'0 0.0
2014-Oct-14 22:32N 38°30' W 008°56'0 0.0
2014-Oct-14 21:29N 38°30' W 008°56'0 0.0
2014-Oct-14 20:32N 38°30' W 008°56'0 0.0
2014-Oct-14 19:32N 38°30' W 008°56'2 1.8
2014-Oct-14 18:32N 38°30' W 008°54'1 0.5
2014-Oct-14 17:32N 38°31' W 008°53'0 0.0
2014-Oct-14 16:29N 38°31' W 008°53'0 0.0
2014-Oct-14 15:32N 38°31' W 008°53'0 0.0
2014-Oct-14 14:32N 38°31' W 008°53'0 0.0
2014-Oct-14 13:32N 38°31' W 008°53'0 0.1
2014-Oct-14 12:32N 38°31' W 008°53'0 0.1
2014-Oct-14 11:29N 38°31' W 008°54'0 0.0
2014-Oct-14 10:23N 38°31' W 008°54'0 0.0
2014-Oct-14 08:29N 38°31' W 008°54'0 0.1
2014-Oct-14 07:26N 38°31' W 008°53'0 0.0
2014-Oct-14 06:29N 38°31' W 008°53'0 0.0
2014-Oct-14 05:29N 38°31' W 008°53'0 0.0
2014-Oct-14 04:32N 38°31' W 008°53'0 0.0
2014-Oct-14 03:29N 38°31' W 008°53'0 0.0
2014-Oct-14 02:23N 38°31' W 008°53'0 0.0
2014-Oct-14 01:32N 38°31' W 008°53'0 0.0
2014-Oct-14 00:29N 38°31' W 008°53'0 0.0
2014-Oct-13 23:17N 38°31' W 008°53'0 0.1
2014-Oct-13 22:23N 38°31' W 008°54'0 0.0
2014-Oct-13 21:17N 38°31' W 008°54'0 0.0
2014-Oct-13 20:29N 38°31' W 008°54'0 0.0
2014-Oct-13 19:32N 38°31' W 008°54'0 0.1
2014-Oct-13 18:32N 38°31' W 008°53'0 0.0
2014-Oct-13 17:32N 38°31' W 008°53'0 0.0
2014-Oct-13 16:23N 38°31' W 008°53'0 0.1
2014-Oct-13 15:26N 38°31' W 008°53'0 0.0
2014-Oct-13 14:32N 38°31' W 008°53'0 0.0
2014-Oct-13 13:32N 38°31' W 008°53'0 0.0
2014-Oct-13 12:29N 38°31' W 008°54'1 1.2
2014-Oct-13 11:33N 38°30' W 008°55'8 8.4
2014-Oct-13 10:34N 38°23' W 009°01'1110.5
2014-Oct-13 09:33N 38°13' W 009°03'10 9.9
2014-Oct-13 08:33N 38°03' W 009°05'9 9.0
2014-Oct-13 07:33N 37°54' W 009°07'9 8.7
2014-Oct-13 06:33N 37°46' W 009°09'8 8.0
2014-Oct-13 05:33N 37°38' W 009°11'7 7.3
2014-Oct-13 04:33N 37°31' W 009°13'58 4.1
2014-Oct-12 14:20N 36°38' W 008°43'167 7.7
2014-Oct-11 16:32N 36°02' W 005°21'226 9.4
2014-Oct-10 16:29N 36°34' W 000°43'19 9.8
2014-Oct-10 14:33N 36°36' W 000°19'2110.1
2014-Oct-10 12:29N 36°38' E 000°07'11 9.8
2014-Oct-10 11:22N 36°40' E 000°20'45 8.9
2014-Oct-10 06:19N 36°43' E 001°16'7 9.2
2014-Oct-10 05:32N 36°44' E 001°25'9 9.3
2014-Oct-10 04:33N 36°45' E 001°36'10 9.1
2014-Oct-10 03:29N 36°47' E 001°48'11 8.9
2014-Oct-10 02:12N 36°48' E 002°02'8 9.2
2014-Oct-10 01:23N 36°49' E 002°12'19 9.4
2014-Oct-09 23:22N 36°50' E 002°35'8 9.7
2014-Oct-09 22:33N 36°50' E 002°45'10 9.7
2014-Oct-09 21:29N 36°51' E 002°58'8 8.2
2014-Oct-09 20:34N 36°48' E 003°07'  

Dump ship's entire track history